Terminal Aerodrome Forecast
Issued by NWS Raleigh/Durham, NC

Home | Current Version | Previous Version | Text Only | Print | Product List | Glossary On
Versions: 1 2 3 4 5 6 7 8 9 10 11 12 13 14 15 16 17 18 19 20 21 22 23 24 25
000
FTUS42 KRAH 060912 AAA
TAFGSO
TAF AMD
KGSO 060912Z 0609/0706 00000KT 4SM -RA BR SCT023 BKN030 OVC060
     FM061500 32010KT P6SM BKN040
     FM061900 31010G15KT P6SM VCSH BKN050
      TEMPO 0619/0622 5SM -SHRA BR
     FM062200 28006KT P6SM BKN090=

USA.gov is the U.S. government's official web portal to all federal, state and local government web resources and services.